Change the Weather History Date:

Tuesday, October 2, 2012

  Actual Average Record
Temperature  
Mean Temperature 60 °F 57 °F  
Max Temperature 85 °F 72 °F 95 °F (1903)
Min Temperature 34 °F 42 °F 31 °F (1999)
Degree Days  
Heating Degree Days 5 9  
Month to date heating degree days 16 17  
Cooling Degree Days 0 1  
Month to date cooling degree days 0 2  
Year to date cooling degree days 1378 959  
Growing Degree Days 10 (Base 50)    
Moisture  
Dew Point 34 °F    
Average Humidity 47    
Maximum Humidity 76    
Minimum Humidity 17    
Precipitation  
Precipitation 0.00 in 0.05 in 0.89 in (1923)
Sea Level Pressure  
Sea Level Pressure 29.91 in    
Wind  
Wind Speed 8 mph (SSW)    
Max Wind Speed 15 mph    
Max Gust Speed 21 mph    
Visibility 10 miles    
Events      
T = Trace of Precipitation, MM = Missing Value Source: NWS Daily Summary

Daily Weather History Graph

Daily Weather History Graph

Search for Another Location

Airport or City:

Trip Planner

Search our weather history database for the weather conditions in past years. The results will help you decide how hot, cold, wet, or windy it might be!

Date:

Astronomy

Oct. 02, 2012 Rise Set
Actual Time 6:44 AM MDT 6:26 PM MDT
Civil Twilight 6:17 AM MDT 6:53 PM MDT
Nautical Twilight 5:45 AM MDT 7:24 PM MDT
Astronomical Twilight 5:13 AM MDT 7:56 PM MDT
Moon 7:39 PM MDT (10/2) 9:14 AM MDT (10/2)
Length of Visible Light 12h 36m
Length of Day
11h 41m
Waning Gibbous, 94% of the Moon is Illuminated
Oct 2
Waning Gibbous
Oct 8
Last Quarter
Oct 15
New
Oct 21
First Quarter
Oct 29
Full

Hourly Weather History & Observations

Time (MDT) Temp. Windchill Dew Point Humidity Pressure Visibility Wind Dir Wind Speed Gust Speed Precip Events Conditions
12:53 AM 37.9 °F 31.5 °F 30.0 °F 73% 30.12 in 10.0 mi WSW 9.2 mph - N/A   Clear
1:53 AM 37.0 °F 34.5 °F 28.9 °F 73% 30.10 in 10.0 mi WSW 3.5 mph - N/A   Clear
2:53 AM 36.0 °F 32.1 °F 28.0 °F 73% 30.09 in 10.0 mi SW 4.6 mph - N/A   Clear
3:53 AM 37.0 °F 32.4 °F 28.9 °F 73% 30.06 in 10.0 mi SW 5.8 mph - N/A   Clear
4:53 AM 37.0 °F 33.3 °F 28.9 °F 73% 30.05 in 10.0 mi SW 4.6 mph - N/A   Clear
5:53 AM 37.0 °F 31.6 °F 28.9 °F 73% 30.04 in 10.0 mi SSW 6.9 mph - N/A   Clear
6:53 AM 37.0 °F 34.5 °F 30.0 °F 76% 30.05 in 10.0 mi South 3.5 mph - N/A   Clear
7:53 AM 46.9 °F - 33.1 °F 59% 30.01 in 10.0 mi South 6.9 mph - N/A   Clear
8:53 AM 54.0 °F - 35.1 °F 49% 30.00 in 10.0 mi SSW 9.2 mph - N/A   Clear
9:53 AM 61.0 °F - 37.9 °F 42% 29.97 in 10.0 mi SSW 10.4 mph - N/A   Clear
10:53 AM 69.1 °F - 37.9 °F 32% 29.94 in 10.0 mi SSW 10.4 mph - N/A   Clear
11:53 AM 75.9 °F - 37.0 °F 24% 29.89 in 10.0 mi South 9.2 mph - N/A   Clear
12:53 PM 79.0 °F - 37.9 °F 23% 29.85 in 10.0 mi SSW 10.4 mph 20.7 mph N/A   Clear
1:53 PM 82.0 °F - 37.0 °F 20% 29.81 in 10.0 mi South 9.2 mph - N/A   Clear
2:53 PM 82.9 °F - 36.0 °F 19% 29.79 in 10.0 mi SSW 6.9 mph - N/A   Clear
3:53 PM 84.0 °F - 35.1 °F 17% 29.77 in 10.0 mi SW 9.2 mph 19.6 mph N/A   Clear
4:53 PM 84.0 °F - 36.0 °F 18% 29.76 in 10.0 mi South 6.9 mph - N/A   Clear
5:53 PM 78.8 °F - 37.4 °F 23% 29.80 in 10.0 mi SSE 9.2 mph - N/A   Clear
6:53 PM 64.9 °F - 36.0 °F 34% 29.79 in 10.0 mi SE 9.2 mph - N/A   Clear
7:53 PM 61.0 °F - 36.0 °F 39% 29.79 in 10.0 mi SE 10.4 mph - N/A   Clear
8:53 PM 61.0 °F - 37.0 °F 41% 29.78 in 10.0 mi SSE 10.4 mph - N/A   Clear
9:53 PM 60.1 °F - 37.0 °F 42% 29.77 in 10.0 mi SSE 8.1 mph - N/A   Clear
10:53 PM 62.1 °F - 37.9 °F 41% 29.75 in 10.0 mi South 11.5 mph - N/A   Clear
11:53 PM 59.0 °F - 37.9 °F 46% 29.74 in 10.0 mi South 8.1 mph - N/A   Clear